Location: Asheville, NC
(35.6000°N, 82.5500°W)
Time: 22:51:12
(UTC-05:00)

N. Korean satellite - Pass Details

Date: 05 January 2018
Orbit: 459 x 515 km, 97.2° (Epoch: 17 January)

Event Time Altitude Azimuth Distance (km) Brightness Sun altitude
Rises 06:29:29 0° 27° (NNE) 2,512 10.3 -14.1°
Reaches altitude 10° 06:31:55 10° 44° (NE) 1,622 9.6 -13.6°
Maximum altitude 06:34:38 21° 95° (E) 1,081 9.3 -13.1°
Drops below altitude 10° 06:37:19 10° 147° (SSE) 1,598 10.0 -12.6°
Sets 06:39:40 0° 164° (SSE) 2,463 10.7 -12.1°
